Decoded Metar for LDZD (ZADAR in CROATIA) (IATA:ZAD) | Meteo·Mobile Aviation Weather
aviador You're here:

LDZD Decoded Metar

ZADAR in CROATIA
Report Time2019-02-16 01:00:00
UTC Time2019-02-16 01:34:53
Flight Rules vfr VFR
WindCalm
Visibility9999 m
Phenomena:N/A
Clouds:N/A
Expected CloudBase > 800 ft AGL from Temp-Dew spread
CeilingNone
Temp-2°C (ISA -16)
Dew Point-4°C (86% RH)
AAT-4.5°C
QNH1030 hPa
Density Alt-2,257 ft
Elevation276 ft
Report Wrong Elevation
Raw Report
LDZD 160100Z 00000KT CAVOK M02/M04 Q1030=

Extra information for LDZD:More info

Metar Taf Metar & Taf Last 4 Metars F.Rules Stats Wind Profile Meteogram Temp Stats Airport Information Weather charts Add Link Nearby VenuesMetar ALERT Operation Metar Decoded Social comments